SCP
1 1 1 2 3 2 1 0 0 0 0 0 0 0 0 0 0 0 1 1 1 1 1 1 1 1 1 1 1 1 0 0 0 0 0 0 0 0 0 0 0 0 0 0 0 0 0 0 0
1 1 2 2 2 1 1 0 0 0 0 0 0 0 1 1 0 1 1 1 1 1 1 1 1 1 1 1 1 1 1 0 0 0 0 0 0 0 0 0 0 0 0 0 0 0 0 0 0
1 1 1 2 2 1 0 0 0 0 0 0 0 1 1 1 1 1 1 1 1 1 1 1 1 1 1 1 1 1 0 0 0 0 0 0 0 0 0 0 0 0 0 0 0 0 0 0 0
1 1 1 1 1 0 0 0 0 0 0 0 1 1 1 1 1 1 2 2 1 1 1 1 1 1 1 1 1 0 0 0 0 0 0 0 0 0 0 0 0 0 0 0 0 0 0 0 0
1 1 1 1 1 0 0 0 0 0 0 1 1 2 1 1 1 1 1 1 1 1 1 0 1 1 1 1 1 0 0 0 0 0 0 0 0 0 0 0 0 0 0 0 0 0 0 0 0
1 1 1 1 0 0 0 0 0 0 0 1 2 2 2 2 1 1 1 1 1 1 1 1 1 1 1 1 1 1 0 0 0 0 0 0 0 0 0 0 0 0 0 0 0 0 0 0 0
0 0 0 0 0 0 0 0 0 0 0 1 2 2 2 2 2 1 1 1 1 1 1 1 1 1 1 1 1 1 0 0 0 0 0 0 0 0 0 0 0 0 0 0 0 0 0 0 0
0 0 0 0 0 0 0 0 0 1 1 1 1 3 3 3 2 2 1 1 2 2 1 1 1 1 1 1 1 1 1 0 0 0 0 0 0 0 0 0 0 0 0 0 0 0 0 0 0
0 0 0 0 0 0 0 0 1 1 1 1 2 3 4 4 3 2 2 2 2 2 1 1 1 1 1 1 2 1 1 1 0 0 0 0 0 0 0 1 1 0 0 0 0 0 0 0 0
0 0 0 0 0 0 0 0 1 1 1 2 3 4 5 4 3 2 2 2 2 3 2 2 1 2 2 2 3 2 2 1 1 1 1 1 1 0 1 1 1 0 0 0 0 0 0 0 0
0 0 0 0 0 0 0 0 1 1 1 3 4 5 5 4 3 2 2 2 3 3 3 2 2 2 2 3 4 3 2 2 1 1 1 1 1 1 1 1 1 0 0 0 0 0 0 0 0
0 0 0 0 0 0 0 0 1 1 1 3 4 5 4 3 3 2 2 2 3 3 4 3 3 3 3 3 3 3 3 2 2 1 1 1 1 1 1 1 1 0 0 0 0 0 0 0 0
0 0 0 0 0 0 0 1 1 1 2 3 4 4 3 3 3 3 3 3 4 5 5 5 4 4 3 3 3 2 2 2 3 2 2 1 1 1 1 1 1 1 1 1 1 1 0 0 0
0 0 0 0 0 0 1 1 1 1 2 3 3 3 3 3 4 4 5 5 6 6 6 6 5 4 4 3 3 2 2 2 3 3 2 2 1 2 2 2 1 1 1 1 1 1 1 0 0
0 0 0 0 0 0 1 1 1 1 2 2 3 3 3 4 5 6 7 8 7 7 6 5 4 4 4 4 4 3 3 3 3 3 2 2 2 2 2 2 2 1 1 1 1 1 1 0 0
0 0 0 0 0 0 1 1 1 1 2 2 3 3 4 5 6 7 8 8 7 7 6 5 4 4 4 5 4 3 3 4 3 3 2 2 2 2 2 2 2 1 1 1 1 1 1 0 0
0 0 0 0 0 0 0 1 1 1 1 2 3 4 4 4 4 6 8 7 6 6 6 5 5 5 5 5 4 3 3 4 4 3 2 2 2 2 2 2 2 2 2 2 1 1 1 1 1
0 0 0 0 0 0 0 1 1 1 1 2 3 4 4 4 4 5 6 6 6 6 6 5 5 6 6 5 4 3 4 4 3 3 3 3 3 3 2 2 2 2 3 2 2 1 1 1 1
0 0 0 0 0 0 0 1 1 1 1 2 3 4 4 4 4 5 6 6 6 6 5 5 5 6 5 5 4 4 5 4 3 2 3 3 4 4 3 2 3 4 4 3 2 2 1 1 1
0 0 0 0 0 0 0 1 1 1 1 2 3 4 4 4 5 6 7 7 6 6 5 5 5 5 5 4 4 4 5 4 3 3 3 4 4 5 4 3 4 5 5 4 3 2 2 1 1
0 0 0 0 0 0 0 1 1 1 1 2 3 4 4 5 6 7 8 8 7 6 5 5 5 5 4 4 4 4 4 3 3 3 3 4 5 5 4 4 4 5 5 4 3 2 2 1 1
0 0 0 0 0 0 0 1 1 1 1 1 2 3 4 5 5 6 7 7 7 6 5 5 5 5 5 4 4 3 3 3 3 3 4 5 5 5 4 4 4 5 4 4 3 2 2 1 1
0 0 0 0 0 0 0 0 1 2 2 2 2 3 4 4 5 5 6 6 6 5 4 4 4 5 5 5 4 4 3 3 3 3 4 5 5 4 4 3 3 4 4 4 3 2 2 2 1
0 0 0 0 0 0 0 0 1 2 2 2 2 4 5 5 4 4 5 5 5 4 4 3 4 4 5 5 4 4 4 4 4 4 5 5 4 3 3 3 2 3 3 3 3 2 2 2 2
0 0 0 0 0 0 0 1 1 2 2 2 3 5 5 5 4 5 5 5 4 4 3 3 3 4 5 5 4 4 4 4 4 4 4 4 4 3 3 2 2 2 3 3 3 2 2 2 2
0 0 0 0 0 0 0 1 1 2 2 3 5 6 5 5 4 5 5 5 4 3 3 3 3 3 4 4 4 4 4 4 4 4 4 4 3 3 3 3 3 3 3 3 2 2 2 2 2
0 0 0 0 0 0 1 1 2 2 3 5 6 6 5 5 4 4 5 4 3 3 3 3 3 3 3 4 4 4 5 4 4 4 4 3 3 3 3 4 4 3 3 3 2 2 2 2 2
0 0 0 0 0 0 1 1 2 3 5 7 7 6 5 4 4 4 4 3 3 3 3 3 3 3 3 3 3 4 4 5 5 5 4 4 4 4 5 5 5 4 3 3 3 3 3 2 2
0 0 0 0 0 0 0 1 3 5 7 7 6 5 4 4 4 3 3 3 3 3 3 3 4 4 3 3 3 3 4 4 4 5 5 5 5 4 5 5 5 4 4 3 3 3 3 3 2
0 0 0 0 0 0 0 1 4 7 8 7 5 4 4 4 4 3 3 3 3 3 3 4 4 4 3 3 3 3 3 3 4 4 5 6 5 4 4 4 4 4 3 3 3 3 3 2 2
Wind_Speed
10 12 11 7 3 3 5 11 12 12 13 13 12 14 17 15 11 11 14 22 23 20 17 15 15 15 15 14 14 14 14 13 13 13 12 12 13 13 13 14 14 15 15 15 15 15 15 15 14
11 14 9 3 2 1 8 11 12 13 12 11 13 16 17 16 16 16 17 21 22 20 16 15 16 15 15 14 14 14 14 13 13 12 12 12 12 13 13 13 14 14 15 15 15 14 14 14 13
13 17 7 4 3 2 8 10 11 11 10 11 14 16 14 13 14 15 17 21 20 18 16 16 16 15 15 14 14 13 13 13 13 12 12 12 12 12 13 13 14 14 14 14 14 14 14 13 11
9 7 5 4 3 5 9 9 10 9 9 11 12 13 12 11 13 17 19 20 20 18 17 16 16 16 15 14 14 13 13 12 12 12 12 12 12 12 12 13 13 13 13 14 14 13 13 11 10
9 5 4 5 3 7 9 9 9 8 9 12 15 16 12 13 17 19 18 19 19 19 17 16 16 15 14 14 13 13 13 12 12 12 12 11 11 12 12 13 13 13 13 13 12 12 11 10 8
6 4 4 4 1 6 8 8 8 8 8 10 15 16 11 13 16 16 17 16 18 20 18 15 16 15 14 13 13 13 13 12 12 12 12 12 12 12 12 12 13 13 13 12 12 11 10 9 7
8 7 9 7 2 5 6 7 7 7 9 8 12 14 11 13 15 15 15 15 17 19 18 14 14 13 13 13 13 13 12 12 12 12 12 12 12 12 12 12 12 12 12 11 11 10 9 8 5
8 8 10 5 2 5 5 6 6 7 7 7 10 11 12 15 15 15 14 14 16 18 17 15 14 13 12 11 12 13 13 12 12 12 12 12 12 12 13 12 11 11 11 10 10 9 9 8 5
10 8 7 4 3 5 4 4 5 6 7 8 10 13 18 18 16 15 13 12 13 14 14 15 15 13 12 12 12 12 12 12 12 10 12 11 8 9 9 12 11 11 10 9 9 9 8 7 6
7 8 7 3 3 4 4 2 4 5 8 9 10 14 19 18 16 15 14 14 13 13 13 13 14 13 12 11 10 8 9 9 7 7 8 6 4 5 9 12 11 11 9 8 8 8 8 6 5
9 10 6 5 4 2 0 3 4 6 6 8 10 14 17 17 15 14 14 13 13 12 12 13 12 10 10 8 9 6 5 6 6 7 6 4 4 5 7 5 6 6 8 6 7 7 5 5 3
11 10 6 5 4 3 2 1 3 5 7 12 14 15 16 17 15 13 12 12 12 10 10 12 11 8 6 8 6 6 6 5 5 6 6 5 3 4 5 4 5 5 4 3 4 3 4 3 3
10 10 9 6 5 5 3 1 2 4 7 14 17 17 16 16 15 13 12 11 11 8 8 10 9 7 5 4 4 6 5 6 6 5 4 5 4 3 4 2 2 3 3 4 2 2 2 2 2
9 10 10 8 7 5 4 3 2 4 7 12 15 15 15 14 15 14 12 11 12 10 8 9 9 7 5 4 1 2 4 3 5 5 6 5 3 4 4 3 2 2 2 2 2 3 3 1 2
10 12 12 11 9 7 6 5 2 3 6 10 12 13 12 11 13 14 13 11 12 10 8 9 8 8 6 6 4 4 4 5 4 4 6 5 4 5 4 3 3 2 3 3 2 3 2 3 3
11 13 13 11 9 7 6 5 2 5 7 8 11 12 12 10 12 13 13 11 11 10 9 9 9 9 7 5 4 3 4 4 4 4 5 5 4 5 4 3 3 3 3 3 2 2 2 2 2
13 14 13 9 8 6 6 4 3 7 7 8 10 13 13 11 11 11 13 12 11 10 10 9 7 9 8 6 5 3 2 3 3 4 5 5 6 6 4 3 3 3 3 2 3 3 1 2 2
11 11 9 7 8 6 5 4 7 8 8 8 10 11 13 12 10 11 11 11 10 10 9 9 7 8 8 6 4 3 3 3 3 3 5 7 5 6 4 3 4 3 3 2 2 3 1 1 1
14 12 9 6 4 5 6 7 8 9 7 8 9 11 12 12 11 11 11 12 11 10 10 10 8 8 7 6 6 5 5 4 4 4 6 7 6 6 5 3 5 3 3 3 4 3 3 1 1
13 13 11 6 5 5 7 8 7 7 7 6 7 9 11 11 11 11 11 11 12 11 10 10 9 9 8 6 5 4 4 4 5 4 6 7 7 7 7 4 4 4 3 3 3 3 2 2 2
13 13 12 9 5 6 8 9 8 7 6 8 9 10 11 12 12 12 11 11 11 11 11 10 9 8 8 7 5 4 3 3 4 5 5 6 6 6 5 6 4 4 4 4 4 4 4 2 2
11 12 12 10 9 8 10 8 7 8 7 8 9 9 9 10 11 11 12 11 11 11 11 9 9 8 7 7 7 7 6 6 6 5 5 6 6 6 5 5 5 4 3 5 5 5 3 3 2
12 10 10 11 10 12 11 9 4 7 6 6 8 9 8 10 11 9 9 10 10 10 10 9 9 8 7 7 7 7 6 5 4 4 6 6 6 6 6 6 5 5 3 5 4 4 4 3 3
11 10 9 11 11 13 12 11 5 5 5 5 5 5 8 9 12 11 9 9 9 9 9 9 8 7 7 7 7 7 7 6 5 5 6 6 5 5 7 7 6 5 4 4 4 4 5 3 3
13 10 8 9 9 10 10 10 4 7 7 5 6 6 7 9 11 11 10 10 9 9 8 8 8 7 8 8 8 7 7 6 6 5 6 6 5 5 7 7 5 5 5 5 5 4 4 4 4
15 15 11 8 7 6 7 7 4 10 9 7 7 8 8 10 10 10 10 9 8 9 8 7 7 7 7 7 7 6 6 5 5 5 5 5 5 5 6 6 6 5 5 6 5 5 5 4 4
16 16 17 14 12 7 6 6 7 9 10 9 9 8 8 9 10 11 10 9 8 8 7 6 6 6 6 6 6 6 6 5 5 4 5 4 4 4 6 6 6 6 6 5 5 4 5 4 5
17 15 11 12 10 9 6 7 4 7 7 9 9 9 10 10 10 10 9 8 8 7 6 6 6 5 5 4 4 5 4 4 4 3 4 4 4 4 5 6 6 6 6 6 5 4 5 5 4
17 17 13 9 10 10 5 2 1 7 8 9 10 10 11 10 11 9 8 8 8 7 7 5 5 5 4 4 4 3 3 4 4 4 4 3 4 4 4 5 5 5 5 5 4 5 5 5 5
17 17 15 10 9 10 6 3 3 4 6 9 11 10 10 11 10 10 9 9 7 7 6 6 5 4 4 3 3 3 3 3 2 2 2 2 3 4 4 4 4 4 4 4 5 6 5 5 5
Wind_Direction
249 249 238 254 269 262 72 76 76 75 66 60 56 68 67 60 77 92 111 111 115 118 123 124 122 123 122 123 123 122 119 116 113 110 109 106 104 102 100 100 100 102 102 101 100 100 100 99 100
268 264 249 250 281 359 77 78 78 76 75 73 66 69 75 73 87 106 112 115 119 125 131 125 125 124 123 124 125 124 122 119 117 116 114 111 108 106 104 103 103 104 105 104 103 102 102 103 103
265 267 266 225 227 110 87 84 82 83 84 78 74 66 65 84 98 110 119 122 121 121 118 124 126 125 125 125 126 125 124 123 122 120 118 114 111 109 108 107 106 106 106 106 105 104 104 104 106
263 262 254 262 255 99 94 92 96 87 82 81 81 78 70 80 106 119 126 120 120 122 123 126 127 126 127 128 128 127 127 128 127 124 120 116 114 112 112 110 109 108 107 107 106 105 106 107 110
251 274 284 292 268 96 93 95 96 92 84 87 89 91 86 94 112 125 128 124 130 125 125 130 129 128 129 130 130 130 131 130 128 126 123 120 116 114 113 112 111 109 109 108 107 108 108 110 114
258 254 274 283 291 89 91 90 94 97 86 90 101 99 96 113 124 134 131 133 130 126 127 129 131 131 132 133 134 134 133 132 130 130 127 124 121 118 115 114 113 113 111 110 110 110 111 111 115
263 272 270 257 189 100 95 95 96 97 96 96 105 102 121 134 135 137 134 134 129 126 129 138 139 137 138 139 139 138 136 135 135 133 130 127 125 123 120 118 118 117 115 115 116 117 118 119 124
269 290 293 278 127 99 97 96 98 93 88 99 101 116 140 140 144 138 135 134 129 131 138 144 145 144 148 145 145 143 140 140 140 139 138 135 133 131 130 126 123 123 122 124 126 128 130 134 146
265 274 282 289 97 105 90 95 104 98 94 63 74 118 141 147 148 141 141 137 134 137 143 149 147 153 156 153 148 149 147 147 147 148 150 152 152 144 147 126 132 132 134 136 141 145 147 152 169
240 267 277 320 27 84 111 138 114 99 92 82 73 113 136 148 149 150 150 148 145 145 150 149 150 157 162 152 148 159 161 157 170 157 165 179 155 144 131 134 142 145 149 155 161 160 163 183 178
243 257 293 327 336 16 141 133 122 118 116 133 142 142 145 152 154 158 157 154 149 153 153 147 145 157 158 140 160 166 157 158 177 164 171 164 141 139 131 147 150 159 168 181 166 179 192 210 183
256 272 287 295 309 301 294 109 94 87 128 147 152 156 157 160 162 163 158 154 149 159 154 149 142 157 151 151 163 155 156 165 170 164 178 153 162 150 149 157 167 173 181 183 183 191 180 183 154
253 267 274 273 277 275 286 332 91 121 137 138 146 156 162 164 162 161 158 154 150 160 157 140 139 147 142 141 162 164 160 167 162 159 180 161 162 156 142 145 157 179 159 171 191 141 115 127 143
270 272 271 267 262 252 250 232 204 158 138 137 144 156 163 162 161 160 158 158 156 166 157 136 142 143 138 138 169 143 152 152 149 161 165 175 164 142 134 141 164 188 152 152 150 130 136 138 94
266 270 263 252 242 234 233 242 227 180 160 148 148 153 153 164 161 160 161 161 159 163 153 144 149 149 156 163 185 173 164 162 161 156 153 175 169 142 151 159 184 180 147 136 141 137 154 166 145
253 253 252 239 224 217 228 255 207 233 187 160 151 149 152 164 168 161 157 157 158 161 156 157 166 160 167 171 190 185 184 160 155 151 155 177 160 155 165 170 181 160 152 150 148 167 180 150 128
240 241 245 227 208 209 214 231 178 222 199 169 158 155 158 165 174 162 158 161 158 156 156 162 168 161 172 174 181 204 191 157 157 161 160 173 170 166 183 176 153 171 162 158 180 144 153 144 148
247 249 244 224 195 208 227 218 190 217 202 180 165 159 158 168 178 167 161 159 156 156 159 164 169 163 168 168 172 195 189 165 176 173 166 168 176 173 183 177 165 184 161 156 131 121 127 130 193
277 289 278 253 203 213 235 237 207 201 202 179 166 163 164 171 170 166 164 162 163 163 167 168 174 168 166 172 180 186 186 183 187 186 176 175 182 177 192 189 161 186 164 160 154 148 154 193 208
267 276 272 249 220 232 256 251 230 204 194 175 169 172 168 167 163 167 167 169 170 169 169 170 176 173 176 181 182 182 180 187 194 191 175 181 186 180 190 198 174 178 163 164 163 151 165 208 195
252 259 267 269 244 229 252 251 240 224 207 176 179 184 173 169 168 166 172 172 171 174 175 177 176 175 182 176 171 179 176 193 197 182 174 184 183 187 196 175 188 174 173 171 179 179 186 204 212
246 251 263 270 268 254 248 249 220 207 205 196 189 181 170 161 159 169 174 175 177 176 175 172 172 175 178 175 179 184 189 196 198 184 179 182 182 186 192 180 186 184 187 166 183 187 190 193 215
248 256 256 261 259 265 259 260 219 192 200 201 194 177 162 156 151 163 174 167 170 172 174 171 167 173 175 182 188 191 201 204 200 187 179 180 183 191 194 188 186 188 197 179 187 164 186 191 206
242 250 250 255 258 251 252 256 231 180 176 199 179 163 147 151 142 153 163 154 158 164 167 167 167 173 175 186 196 201 205 205 202 192 181 181 184 194 197 191 189 191 198 185 183 178 192 208 224
223 229 228 226 232 247 248 245 196 156 154 170 149 150 140 141 136 142 149 148 153 160 164 163 165 176 184 191 200 206 210 207 208 205 195 191 190 194 197 193 185 192 195 189 183 186 200 204 216
213 227 235 241 236 237 236 242 164 131 130 141 141 140 143 138 133 133 134 140 150 157 160 161 167 176 185 194 199 204 206 207 211 211 207 201 203 199 188 185 188 194 197 199 190 193 198 199 208
217 222 242 258 271 266 209 193 148 143 144 145 139 142 139 131 132 134 134 138 141 144 149 154 158 168 178 189 194 200 203 204 208 209 207 208 202 198 183 187 195 195 198 204 194 207 208 190 203
239 227 233 252 269 273 241 213 185 169 160 149 139 138 132 130 129 128 132 130 129 133 134 136 149 165 173 181 192 197 194 194 203 215 214 206 205 209 191 189 189 191 197 198 195 208 206 198 205
219 231 236 248 254 263 254 223 128 164 165 154 138 133 133 133 128 124 122 120 123 124 125 127 136 147 160 176 185 188 182 188 196 209 218 210 203 203 198 191 188 190 195 196 200 212 200 199 208
219 226 226 236 250 264 266 179 126 148 164 139 121 117 115 118 117 121 123 120 120 120 123 123 127 135 143 150 159 164 169 174 181 195 199 197 188 190 190 186 183 191 196 196 204 215 206 202 208